Regional Weather Roundup
Issued by NWS Boston, MA

Home | Current Version | Previous Version | Text Only | Print | Product List | Glossary On
Versions: 1 2 3 4 5 6 7 8 9 10 11 12 13 14 15 16 17 18 19 20 21 22 23 24 25 26 27 28 29 30 31 32 33 34 35 36 37 38 39 40 41 42 43 44 45 46 47 48 49 50
000
ASUS41 KBOX 020810
RWRBOX

REGIONAL WEATHER ROUNDUP
NATIONAL WEATHER SERVICE TAUNTON MA
400 AM EDT THU JUL 02 2015

NOTE:  "FAIR" INDICATES FEW OR NO CLOUDS BELOW 12,000 FEET WITH NO
SIGNIFICANT WEATHER AND/OR OBSTRUCTIONS TO VISIBILITY.  THE FOLLOWING
OBSERVATION LOCATIONS DO NOT REPORT PRESENT WEATHER...PROVINCETOWN...
SMITHFIELD...BLOCK ISLAND...KEENE...AND OXFORD.

MAZALL-020900-
EASTERN MASSACHUSETTS

CITY           SKY/WX    TMP DP  RH WIND       PRES   REMARKS
BOSTON         CLEAR     65  58  78 W10       29.82S
BEVERLY        CLEAR     63  56  78 W6        29.81R
LAWRENCE       CLEAR     62  57  83 SW7       29.83R
BEDFORD        CLEAR     61  57  87 W6        29.81S
BLUE HILL        N/A     61  57  87 W13       29.84R
NORWOOD        CLEAR     63  58  83 SW5       29.84R
MARSHFIELD     NOT AVBL
PLYMOUTH       CLEAR     63  59  87 SW5       29.85R
TAUNTON        CLEAR     59  57  93 SE3       29.84S
NEW BEDFORD    CLEAR     63  58  83 NW3       29.83F
$$

MAZALL-020900-
CAPE COD AND THE ISLANDS

CITY           SKY/WX    TMP DP  RH WIND       PRES   REMARKS
FALMOUTH       FAIR      64  61  88 W7        29.85S
HYANNIS        CLEAR     64  62  93 CALM      29.84R
CHATHAM        PTCLDY    63  62  97 SW3       29.85R
PROVINCETOWN   CLEAR     61   5  11 SW10      29.84R
NANTUCKET      PTCLDY    63  61  93 SW6       29.86R FOG
MARTHAS VNYRD  PTCLDY    63  60  90 NW5       29.85R
$$

MAZALL-020900-
CENTRAL AND WESTERN MASSACHUSETTS

CITY           SKY/WX    TMP DP  RH WIND       PRES   REMARKS
WORCESTER      CLEAR     62  55  77 W10       29.86S
FITCHBURG      CLEAR     64  56  75 W7        29.84S
ORANGE         CLEAR     55  54  96 CALM      29.85S
SPRINGFIELD    CLEAR     59  56  88 S2        29.84F
WESTFIELD      CLEAR     65  56  72 VRB7      29.85F
NORTH ADAMS    CLOUDY    63  56  78 W6        29.86S
PITTSFIELD     PTCLDY    57  56  96 W7        29.87S
$$

RIZALL-020900-
RHODE ISLAND

CITY           SKY/WX    TMP DP  RH WIND       PRES   REMARKS
PROVIDENCE     CLEAR     65  58  78 NW7       29.84F
NEWPORT        CLEAR     63  58  83 NW3       29.85S
BLOCK ISLAND   CLEAR     64  61  88 CALM      29.86S
SMITHFIELD     CLEAR     63  52  67 NW6       29.85S
WESTERLY       CLEAR     62  60  93 CALM      29.86R
$$

CTZALL-020900-
CONNECTICUT

CITY           SKY/WX    TMP DP  RH WIND       PRES   REMARKS
BRADLEY INTL   CLEAR     59  56  89 N3        29.84F
HARTFORD       CLEAR     63  60  90 SE9       29.85S
BRIDGEPORT     CLEAR     70  59  68 SW3       29.86S
DANBURY        CLEAR     60  55  83 CALM      29.88F
GROTON         CLEAR     62  60  93 CALM      29.85S FOG
NEW HAVEN      CLEAR     64  59  83 CALM      29.85S
CHESTER        NOT AVBL
MERIDEN        CLEAR     61  58  90 CALM      29.85S
WILLIMANTIC    PTCLDY    61  58  90 CALM      29.85F
OXFORD         CLEAR     61  54  77 CALM      29.88S
$$

MEZ002-015-021-024-NHZ003-005-008-011-012-014-VTZ005-008-020900-
NORTHERN NEW ENGLAND

CITY           SKY/WX    TMP DP  RH WIND       PRES   REMARKS
PORTLAND ME    CLEAR     62  59  90 SW7       29.76R
BANGOR ME      FOG       59  59 100 S5        29.72R VSB 1/4
CONCORD NH     CLEAR     59  56  89 SE5       29.80S
MANCHESTER NH  CLEAR     62  57  83 SW5       29.80R
NASHUA NH      CLEAR     60  58  93 CALM      29.82S
PORTSMOUTH NH  PTCLDY    62  58  89 W10       29.78R
JAFFREY NH     CLEAR     56  55  97 S3        29.85S
KEENE NH       CLEAR     57  54  88 CALM      29.84S
BURLINGTON VT  PTCLDY    61  51  70 W12       29.83R
MT. WASHINGTON LGT RAIN  41  41 100 W58G66      N/A  VSB 0   WCI  26
$$

NYZ052-076-020900-
EASTERN NEW YORK

CITY           SKY/WX    TMP DP  RH WIND       PRES   REMARKS
ALBANY         PTCLDY    63  56  78 SW8       29.87R
NEW YORK CITY  CLEAR     71  60  68 NW3       29.86F
$$

ANZALL-020900-
MARINE OBSERVATIONS

STATION/POSITION TIME  TEMP    WIND        PRES    VSBY  WAVE
                       AIR SEA DIR/SP/G                  HT/PER
                 (UTC) (F)     (DEG/KT/KT) (MB)    (MI)  (FT/S)
BOSTON BUOY      0750   63 58  250/ 10/ 12 1009.8          2/ 3
BUZZARDS BAY     0700          280/  8/  8 1011.4F
NANTUCKET SOUND  0750   68 64  280/  8/  8 1010.5R         1/ 4
MASS BAY-STELLWA 0704   62 58  240/ 10/ 12 1008.7R  1 7/8  2/ 8
ISLE OF SHOALS   0800   63     240/ 19/ 20 1008.1R
S OF BLOCK IS    0708      63                N/A           6/ 8
$$

......................KEY.........................
  SKY/WX - SKY CONDITION/PRESENT WEATHER
  TMP    - TEMPERATURE IN FAHRENHEIT
  DWPT   - DEWPOINT IN FAHRENHEIT
  RH     - RELATIVE HUMIDITY IN PERCENT
  WIND   - DIRECTION AND SPEED IN MPH
  PRES   - MEAN SEA LEVEL PRESSURE IN INCHES OF HG
  WCI    - WIND CHILL INDEX
  VSB    - VISIBILITY IN MILES
  HX     - HEAT INDEX
  TC     - TEMPERATURE IN CELSIUS
  VRB    - VARIABLE WIND DIRECTION
  N/A    - NOT AVAILABLE


USA.gov is the U.S. government's official web portal to all federal, state and local government web resources and services.